Tracking 18851 objects as of 25-Nov-2017
HD Live streaming from Space Station
objects crossing your sky now

LEMUR 2 JENNYBARNA

Track LEMUR 2 JENNYBARNA now!
10-day predictions
LEMUR 2 JENNYBARNA is classified as:


NORAD ID: 42753
Int'l Code: 2017-019C
Perigee: 480.1 km
Apogee: 494.2 km
Inclination: 51.6 °
Period: 94.2 minutes
Semi major axis: 6858 km
RCS: Unknown
Launch date: April 18, 2017
Source: United States (US)
Launch site: AIR FORCE EASTERN TEST RANGE (AFETR)
aabbcc
Your satellite tracking list
Your tracking list is empty




NASA's NSSDC Master Catalog

Two Line Element Set (TLE):
1 42753U 17019C   17328.43408290  .00003253  00000-0  12775-3 0  9998
2 42753  51.6402 352.3295 0010225 192.4137 167.6593 15.28597371 25739
Source of the keplerian elements: AFSPC